Thunderstorms From: 26-05-2018 05:06 Until: 27-05-2018 05:00 warning for: Thunderstorms Level: Yellow info button

Although rather usual in this region, locally or potentially dangerous phenomena are expected. (such as local winds, summer thunderstorms, rising streams or high waves) Be aware and pay attention to the latest weather updates, especially if you carry out activities exposed to weather or close to a stream or shoreline. 


Meteo18 Weather Cam more information Meteo18 Weather Cam


warning for Thunderstorms more information blitzortung!


Rain radar more information rain snow radar


Visit our other weather sites:

Template documentation
and downloads

And another site



Weather Underground History page Text

Daily Summary for May 26, 2017 Units:  English    Metric   Both
« Previous Day
Next Day »
Daily Weekly Monthly Yearly Custom
  High: Low: Average:
Temperature: TemperatureC °F 13.3 °F 21 °F
Dew Point: DewpointC °F 10.9 °F 14.3 °F
Humidity: Humidity % 45 % 67 %
Wind Speed: WindSpeedKMH mph 0.0 mph 4 mph
Wind Gust: WindSpeedGustKMH mph - -
Wind:- - East
Pressure: PressurehPa in 1014.1 in -
Precipitation: 0.0 in    
Historical Graphs
 
 
Tabular Data for May 26, 2017
Time Temperature Dew Point Pressure Wind Wind Speed Wind Gust Humidity Rainfall Rate (Hourly)
TemperatureC °F DewpointC °F PressurehPa in Calm     Humidity % HourlyPrecipMM in
00:02 18.1 °F 12.3 °F 1018.5 in NE 6.4 mph 9.7 mph 69 % 0.0 in
00:12 17.6 °F 12.3 °F 1018.2 in NE 6.4 mph 9.7 mph 71 % 0.0 in
00:17 17.3 °F 12.2 °F 1018.2 in NE 6.4 mph 9.7 mph 72 % 0.0 in
00:22 17.2 °F 12.3 °F 1018.5 in ENE 4.8 mph 11.3 mph 73 % 0.0 in
00:32 17.2 °F 12.3 °F 1018.2 in NE 8.0 mph 12.9 mph 73 % 0.0 in
00:37 17.3 °F 12.2 °F 1018.2 in NNE 6.4 mph 12.9 mph 72 % 0.0 in
00:42 17.4 °F 12.3 °F 1018.2 in NNE 8.0 mph 16.1 mph 72 % 0.0 in
00:47 17.4 °F 12.3 °F 1018.2 in NE 9.7 mph 16.1 mph 72 % 0.0 in
00:57 17.4 °F 12.1 °F 1018.2 in NE 9.7 mph 12.9 mph 71 % 0.0 in
01:02 17.3 °F 12.2 °F 1018.2 in NNE 8.0 mph 12.9 mph 72 % 0.0 in
01:07 17.2 °F 12.1 °F 1018.2 in NE 8.0 mph 12.9 mph 72 % 0.0 in
01:12 17.0 °F 12.1 °F 1018.2 in NE 6.4 mph 12.9 mph 73 % 0.0 in
01:17 16.9 °F 12.0 °F 1017.8 in NE 6.4 mph 12.9 mph 73 % 0.0 in
01:27 16.9 °F 11.8 °F 1018.2 in NNE 9.7 mph 12.9 mph 72 % 0.0 in
01:32 17.0 °F 11.9 °F 1017.8 in North 4.8 mph 12.9 mph 72 % 0.0 in
01:37 17.1 °F 12.0 °F 1017.8 in NNE 9.7 mph 11.3 mph 72 % 0.0 in
01:42 17.0 °F 11.9 °F 1017.8 in NNE 4.8 mph 11.3 mph 72 % 0.0 in
01:47 16.7 °F 11.8 °F 1017.8 in NNW 1.6 mph 9.7 mph 73 % 0.0 in
01:52 16.4 °F 11.8 °F 1017.8 in NNE 1.6 mph 9.7 mph 74 % 0.0 in
01:57 16.2 °F 11.8 °F 1017.8 in NE 1.6 mph 8.0 mph 75 % 0.0 in
02:02 15.9 °F 11.7 °F 1017.8 in North 3.2 mph 8.0 mph 76 % 0.0 in
02:12 15.6 °F 11.6 °F 1017.8 in Calm   6.4 mph 77 % 0.0 in
02:17 15.5 °F 11.7 °F 1017.8 in NNE 3.2 mph 6.4 mph 78 % 0.0 in
02:22 15.4 °F 11.6 °F 1017.8 in NNE 1.6 mph 6.4 mph 78 % 0.0 in
02:32 15.2 °F 11.4 °F 1017.8 in Calm   4.8 mph 78 % 0.0 in
02:37 15.1 °F 11.5 °F 1017.8 in NNE 4.8 mph 4.8 mph 79 % 0.0 in
02:42 15.0 °F 11.4 °F 1017.5 in NE 3.2 mph 4.8 mph 79 % 0.0 in
02:47 14.9 °F 11.3 °F 1017.8 in NNE 3.2 mph 4.8 mph 79 % 0.0 in
02:52 14.9 °F 11.5 °F 1017.5 in NNE 1.6 mph 6.4 mph 80 % 0.0 in
02:57 14.8 °F 11.4 °F 1017.5 in NE 3.2 mph 6.4 mph 80 % 0.0 in
03:02 14.7 °F 11.3 °F 1017.5 in Calm   6.4 mph 80 % 0.0 in
03:12 14.5 °F 11.3 °F 1017.5 in NNE 4.8 mph 8.0 mph 81 % 0.0 in
03:17 14.4 °F 11.4 °F 1017.5 in NE 6.4 mph 9.7 mph 82 % 0.0 in
03:22 14.4 °F 11.4 °F 1017.5 in North 1.6 mph 9.7 mph 82 % 0.0 in
03:27 14.4 °F 11.4 °F 1017.5 in North 3.2 mph 9.7 mph 82 % 0.0 in
03:32 14.4 °F 11.4 °F 1017.2 in Calm   9.7 mph 82 % 0.0 in
03:37 14.3 °F 11.5 °F 1017.2 in NNW 6.4 mph 9.7 mph 83 % 0.0 in
03:42 14.3 °F 11.5 °F 1017.2 in NNE 6.4 mph 9.7 mph 83 % 0.0 in
03:52 14.0 °F 11.3 °F 1017.2 in NNE 4.8 mph 11.3 mph 84 % 0.0 in
03:57 13.9 °F 11.2 °F 1017.2 in NE 4.8 mph 9.7 mph 84 % 0.0 in
04:02 13.9 °F 11.2 °F 1017.2 in NE 3.2 mph 9.7 mph 84 % 0.0 in
04:12 14.2 °F 11.5 °F 1017.2 in North 1.6 mph 9.7 mph 84 % 0.0 in
04:17 14.1 °F 11.4 °F 1017.2 in NNE 8.0 mph 11.3 mph 84 % 0.0 in
04:22 14.0 °F 11.5 °F 1017.2 in Calm   11.3 mph 85 % 0.0 in
04:32 14.1 °F 11.6 °F 1017.2 in NNW 8.0 mph 14.5 mph 85 % 0.0 in
04:37 14.1 °F 11.4 °F 1017.2 in NNW 1.6 mph 9.7 mph 84 % 0.0 in
04:42 14.2 °F 11.5 °F 1017.2 in North 1.6 mph 9.7 mph 84 % 0.0 in
04:52 14.1 °F 11.4 °F 1017.2 in Calm   8.0 mph 84 % 0.0 in
04:57 13.9 °F 11.4 °F 1017.2 in NNW 4.8 mph 4.8 mph 85 % 0.0 in
05:02 13.9 °F 11.4 °F 1017.2 in North 8.0 mph 8.0 mph 85 % 0.0 in
05:12 13.7 °F 11.4 °F 1017.2 in NNE 4.8 mph 8.0 mph 86 % 0.0 in
05:17 13.7 °F 11.4 °F 1017.2 in North 3.2 mph 9.7 mph 86 % 0.0 in
05:22 13.7 °F 11.4 °F 1017.2 in North 6.4 mph 9.7 mph 86 % 0.0 in
05:32 13.7 °F 11.4 °F 1017.2 in NNE 4.8 mph 9.7 mph 86 % 0.0 in
05:37 13.6 °F 11.3 °F 1017.2 in NNE 6.4 mph 9.7 mph 86 % 0.0 in
05:42 13.6 °F 11.3 °F 1017.2 in NNE 1.6 mph 9.7 mph 86 % 0.0 in
05:47 13.7 °F 11.4 °F 1017.2 in NNE 3.2 mph 11.3 mph 86 % 0.0 in
05:52 13.8 °F 11.3 °F 1017.2 in NE 3.2 mph 11.3 mph 85 % 0.0 in
06:02 13.6 °F 11.1 °F 1017.2 in NNW 1.6 mph 8.0 mph 85 % 0.0 in
06:07 13.6 °F 11.3 °F 1017.2 in Calm   6.4 mph 86 % 0.0 in
06:12 13.6 °F 11.3 °F 1017.2 in North 1.6 mph 6.4 mph 86 % 0.0 in
06:17 13.4 °F 10.9 °F 1017.2 in North 3.2 mph 6.4 mph 85 % 0.0 in
06:22 13.3 °F 11.0 °F 1017.2 in NNE 6.4 mph 6.4 mph 86 % 0.0 in
06:32 13.6 °F 11.5 °F 1017.2 in NNE 4.8 mph 6.4 mph 87 % 0.0 in
06:37 14.1 °F 11.4 °F 1017.2 in Calm   6.4 mph 84 % 0.0 in
06:42 14.2 °F 11.4 °F 1017.2 in Calm   6.4 mph 83 % 0.0 in
06:52 14.5 °F 11.5 °F 1017.2 in Calm   6.4 mph 82 % 0.0 in
07:02 14.9 °F 11.7 °F 1017.2 in NNE 3.2 mph 3.2 mph 81 % 0.0 in
07:07 15.1 °F 11.7 °F 1016.8 in NNE 1.6 mph 3.2 mph 80 % 0.0 in
07:12 15.2 °F 11.8 °F 1016.8 in NNE 4.8 mph 8.0 mph 80 % 0.0 in
07:17 15.3 °F 11.9 °F 1017.2 in ENE 4.8 mph 8.0 mph 80 % 0.0 in
07:22 15.4 °F 11.8 °F 1017.2 in NNE 4.8 mph 11.3 mph 79 % 0.0 in
07:32 15.6 °F 12.0 °F 1017.2 in NNE 3.2 mph 12.9 mph 79 % 0.0 in
07:42 15.7 °F 11.7 °F 1017.2 in NE 9.7 mph 12.9 mph 77 % 0.0 in
07:52 16.0 °F 12.0 °F 1017.2 in ENE 4.8 mph 14.5 mph 77 % 0.0 in
07:57 16.2 °F 12.2 °F 1017.2 in ENE 4.8 mph 14.5 mph 77 % 0.0 in
08:02 16.4 °F 12.6 °F 1017.2 in East 3.2 mph 12.9 mph 78 % 0.0 in
08:12 16.6 °F 12.4 °F 1017.2 in ENE 3.2 mph 8.0 mph 76 % 0.0 in
08:17 16.8 °F 12.5 °F 1017.2 in East 6.4 mph 8.0 mph 76 % 0.0 in
08:22 16.8 °F 12.5 °F 1017.2 in East 4.8 mph 9.7 mph 76 % 0.0 in
08:32 17.1 °F 12.4 °F 1017.5 in ENE 6.4 mph 9.7 mph 74 % 0.0 in
08:42 17.1 °F 12.6 °F 1017.5 in NNE 4.8 mph 9.7 mph 75 % 0.0 in
08:52 17.3 °F 12.6 °F 1017.5 in NE 3.2 mph 9.7 mph 74 % 0.0 in
09:02 17.6 °F 12.7 °F 1017.5 in NNE 6.4 mph 9.7 mph 73 % 0.0 in
09:12 17.8 °F 12.9 °F 1017.2 in ENE 4.8 mph 11.3 mph 73 % 0.0 in
09:22 18.2 °F 13.1 °F 1017.2 in ENE 6.4 mph 11.3 mph 72 % 0.0 in
09:32 18.4 °F 13.0 °F 1017.2 in ENE 8.0 mph 12.9 mph 71 % 0.0 in
09:42 18.7 °F 13.5 °F 1017.2 in NE 6.4 mph 12.9 mph 72 % 0.0 in
09:47 18.9 °F 13.3 °F 1017.2 in ENE 3.2 mph 12.9 mph 70 % 0.0 in
09:52 19.1 °F 13.5 °F 1017.2 in NE 6.4 mph 11.3 mph 70 % 0.0 in
10:02 19.6 °F 14.0 °F 1017.2 in NE 8.0 mph 11.3 mph 70 % 0.0 in
10:12 19.7 °F 13.6 °F 1017.2 in NE 8.0 mph 11.3 mph 68 % 0.0 in
10:17 19.8 °F 13.5 °F 1017.2 in NE 4.8 mph 11.3 mph 67 % 0.0 in
10:22 19.9 °F 13.6 °F 1016.8 in ENE 8.0 mph 12.9 mph 67 % 0.0 in
10:32 20.4 °F 14.1 °F 1016.8 in ENE 12.9 mph 16.1 mph 67 % 0.0 in
10:37 20.5 °F 13.7 °F 1016.5 in NE 6.4 mph 16.1 mph 65 % 0.0 in
10:42 20.7 °F 13.9 °F 1016.5 in ENE 9.7 mph 16.1 mph 65 % 0.0 in
10:47 20.7 °F 13.6 °F 1016.5 in NE 8.0 mph 16.1 mph 64 % 0.0 in
10:57 20.9 °F 14.3 °F 1016.8 in ENE 8.0 mph 17.7 mph 66 % 0.0 in
11:02 21.2 °F 14.1 °F 1016.5 in ENE 9.7 mph 17.7 mph 64 % 0.0 in
11:12 21.5 °F 14.4 °F 1016.5 in ENE 6.4 mph 16.1 mph 64 % 0.0 in
11:17 21.7 °F 14.3 °F 1016.1 in ENE 14.5 mph 16.1 mph 63 % 0.0 in
11:22 21.7 °F 14.3 °F 1016.5 in NE 8.0 mph 19.3 mph 63 % 0.0 in
11:32 21.9 °F 14.3 °F 1016.5 in East 9.7 mph 17.7 mph 62 % 0.0 in
11:37 22.2 °F 14.1 °F 1016.5 in East 6.4 mph 17.7 mph 60 % 0.0 in
11:42 22.4 °F 14.5 °F 1016.1 in NE 9.7 mph 16.1 mph 61 % 0.0 in
11:52 22.7 °F 14.8 °F 1016.1 in ENE 16.1 mph 17.7 mph 61 % 0.0 in
12:02 22.9 °F 15.0 °F 1016.1 in East 3.2 mph 19.3 mph 61 % 0.0 in
12:12 23.2 °F 14.7 °F 1016.1 in ENE 11.3 mph 19.3 mph 59 % 0.0 in
12:17 23.4 °F 15.4 °F 1016.1 in ESE 8.0 mph 19.3 mph 61 % 0.0 in
12:22 23.6 °F 15.6 °F 1016.1 in ENE 8.0 mph 17.7 mph 61 % 0.0 in
12:32 23.9 °F 14.9 °F 1016.1 in ENE 3.2 mph 17.7 mph 57 % 0.0 in
12:37 24.1 °F 15.3 °F 1016.1 in ENE 9.7 mph 14.5 mph 58 % 0.0 in
12:42 24.1 °F 15.3 °F 1016.1 in East 8.0 mph 14.5 mph 58 % 0.0 in
12:47 24.2 °F 15.4 °F 1016.1 in NE 9.7 mph 14.5 mph 58 % 0.0 in
12:52 24.4 °F 15.1 °F 1016.1 in ENE 8.0 mph 16.1 mph 56 % 0.0 in
13:02 24.8 °F 15.1 °F 1016.1 in ENE 4.8 mph 14.5 mph 55 % 0.0 in
13:12 25.1 °F 15.1 °F 1016.1 in Calm   14.5 mph 54 % 0.0 in
13:17 25.4 °F 16.0 °F 1016.1 in ESE 8.0 mph 12.9 mph 56 % 0.0 in
13:22 25.3 °F 16.2 °F 1016.1 in East 8.0 mph 12.9 mph 57 % 0.0 in
13:32 25.2 °F 15.8 °F 1016.1 in NE 4.8 mph 16.1 mph 56 % 0.0 in
13:42 25.7 °F 16.3 °F 1015.8 in SE 3.2 mph 16.1 mph 56 % 0.0 in
13:52 25.9 °F 15.9 °F 1015.8 in Calm   11.3 mph 54 % 0.0 in
14:02 26.5 °F 16.7 °F 1015.8 in SE 1.6 mph 9.7 mph 55 % 0.0 in
14:12 26.9 °F 16.8 °F 1015.8 in Calm   9.7 mph 54 % 0.0 in
14:17 27.2 °F 17.1 °F 1015.5 in ESE 3.2 mph 12.9 mph 54 % 0.0 in
14:22 26.9 °F 16.5 °F 1015.8 in SE 3.2 mph 12.9 mph 53 % 0.0 in
14:32 26.9 °F 16.5 °F 1015.5 in Calm   12.9 mph 53 % 0.0 in
14:37 27.3 °F 16.9 °F 1015.5 in ESE 9.7 mph 9.7 mph 53 % 0.0 in
14:42 27.4 °F 16.7 °F 1015.5 in East 6.4 mph 9.7 mph 52 % 0.0 in
14:47 27.4 °F 17.0 °F 1015.5 in SE 8.0 mph 11.3 mph 53 % 0.0 in
14:52 27.2 °F 16.5 °F 1015.5 in East 3.2 mph 11.3 mph 52 % 0.0 in
14:57 27.2 °F 16.5 °F 1015.5 in East 1.6 mph 14.5 mph 52 % 0.0 in
15:02 27.2 °F 16.8 °F 1015.5 in NNE 11.3 mph 14.5 mph 53 % 0.0 in
15:12 27.2 °F 17.4 °F 1015.5 in SE 4.8 mph 14.5 mph 55 % 0.0 in
15:17 27.3 °F 16.9 °F 1015.5 in ENE 4.8 mph 14.5 mph 53 % 0.0 in
15:22 27.3 °F 16.9 °F 1015.5 in SE 6.4 mph 12.9 mph 53 % 0.0 in
15:32 27.4 °F 16.7 °F 1015.5 in ENE 3.2 mph 8.0 mph 52 % 0.0 in
15:42 27.3 °F 16.6 °F 1015.1 in ESE 1.6 mph 11.3 mph 52 % 0.0 in
15:52 27.5 °F 17.7 °F 1015.1 in ESE 4.8 mph 14.5 mph 55 % 0.0 in
15:57 27.7 °F 17.2 °F 1015.1 in SSW 4.8 mph 14.5 mph 53 % 0.0 in
16:02 28.1 °F 17.0 °F 1015.1 in SE 1.6 mph 14.5 mph 51 % 0.0 in
16:12 27.8 °F 16.7 °F 1015.1 in East 6.4 mph 9.7 mph 51 % 0.0 in
16:17 27.8 °F 16.7 °F 1015.1 in East 3.2 mph 9.7 mph 51 % 0.0 in
16:22 28.1 °F 17.0 °F 1015.1 in ESE 1.6 mph 11.3 mph 51 % 0.0 in
16:32 27.9 °F 16.5 °F 1015.1 in SE 4.8 mph 11.3 mph 50 % 0.0 in
16:37 28.1 °F 16.4 °F 1015.1 in SE 6.4 mph 12.9 mph 49 % 0.0 in
16:42 28.4 °F 17.6 °F 1015.1 in ENE 4.8 mph 12.9 mph 52 % 0.0 in
16:47 28.7 °F 17.2 °F 1014.8 in South 8.0 mph 12.9 mph 50 % 0.0 in
16:52 28.8 °F 17.3 °F 1015.1 in East 3.2 mph 8.0 mph 50 % 0.0 in
16:57 28.3 °F 16.6 °F 1014.8 in ENE 3.2 mph 11.3 mph 49 % 0.0 in
17:02 28.3 °F 16.6 °F 1014.8 in South 4.8 mph 11.3 mph 49 % 0.0 in
17:12 28.8 °F 17.0 °F 1014.8 in ENE 8.0 mph 12.9 mph 49 % 0.0 in
17:17 28.7 °F 16.9 °F 1014.8 in East 4.8 mph 12.9 mph 49 % 0.0 in
17:22 28.6 °F 17.8 °F 1014.8 in SE 1.6 mph 11.3 mph 52 % 0.0 in
17:32 28.7 °F 17.6 °F 1014.8 in South 3.2 mph 11.3 mph 51 % 0.0 in
17:42 29.1 °F 17.0 °F 1014.8 in Calm   9.7 mph 48 % 0.0 in
17:52 29.0 °F 16.9 °F 1014.8 in ESE 1.6 mph 8.0 mph 48 % 0.0 in
17:57 29.1 °F 16.6 °F 1014.8 in SE 3.2 mph 8.0 mph 47 % 0.0 in
18:02 28.9 °F 16.8 °F 1014.8 in Calm   8.0 mph 48 % 0.0 in
18:12 28.9 °F 16.5 °F 1014.4 in Calm   11.3 mph 47 % 0.0 in
18:17 29.1 °F 16.6 °F 1014.4 in Calm   11.3 mph 47 % 0.0 in
18:22 29.1 °F 17.0 °F 1014.8 in SE 3.2 mph 4.8 mph 48 % 0.0 in
18:32 29.2 °F 16.0 °F 1014.4 in ESE 3.2 mph 8.0 mph 45 % 0.0 in
18:42 28.9 °F 16.1 °F 1014.4 in ESE 1.6 mph 6.4 mph 46 % 0.0 in
18:47 28.8 °F 16.7 °F 1014.4 in East 1.6 mph 6.4 mph 48 % 0.0 in
18:52 28.8 °F 16.7 °F 1014.4 in Calm   4.8 mph 48 % 0.0 in
19:02 28.7 °F 17.9 °F 1014.1 in SE 1.6 mph 6.4 mph 52 % 0.0 in
19:12 28.3 °F 17.2 °F 1014.1 in Calm   6.4 mph 51 % 0.0 in
19:17 28.1 °F 17.3 °F 1014.1 in ESE 3.2 mph 6.4 mph 52 % 0.0 in
19:22 27.8 °F 17.3 °F 1014.1 in ENE 4.8 mph 6.4 mph 53 % 0.0 in
19:32 27.7 °F 17.2 °F 1014.4 in East 4.8 mph 8.0 mph 53 % 0.0 in
19:37 27.6 °F 17.5 °F 1014.1 in ENE 1.6 mph 8.0 mph 54 % 0.0 in
19:42 27.6 °F 17.7 °F 1014.1 in East 1.6 mph 8.0 mph 55 % 0.0 in
19:47 27.6 °F 17.7 °F 1014.4 in Calm   6.4 mph 55 % 0.0 in
19:52 27.5 °F 17.4 °F 1014.4 in Calm   6.4 mph 54 % 0.0 in
20:02 27.6 °F 17.5 °F 1014.4 in East 1.6 mph 6.4 mph 54 % 0.0 in
20:12 27.4 °F 17.6 °F 1014.4 in Calm   4.8 mph 55 % 0.0 in
20:17 27.3 °F 17.5 °F 1014.4 in Calm   4.8 mph 55 % 0.0 in
20:22 27.3 °F 17.8 °F 1014.4 in Calm   3.2 mph 56 % 0.0 in
20:27 27.2 °F 17.7 °F 1014.4 in Calm   1.6 mph 56 % 0.0 in
20:32 27.1 °F 17.6 °F 1014.4 in Calm     56 % 0.0 in
20:37 26.8 °F 17.3 °F 1014.4 in ENE 3.2 mph 3.2 mph 56 % 0.0 in
20:42 26.6 °F 17.4 °F 1014.4 in East 3.2 mph 3.2 mph 57 % 0.0 in
20:52 26.2 °F 17.3 °F 1014.4 in East 3.2 mph 4.8 mph 58 % 0.0 in
20:57 25.9 °F 17.3 °F 1014.4 in Calm   4.8 mph 59 % 0.0 in
21:02 25.8 °F 16.9 °F 1014.4 in Calm   4.8 mph 58 % 0.0 in
21:12 25.3 °F 16.7 °F 1014.4 in East 4.8 mph 4.8 mph 59 % 0.0 in
21:17 25.2 °F 16.9 °F 1014.4 in Calm   4.8 mph 60 % 0.0 in
21:22 25.0 °F 16.7 °F 1014.8 in Calm   4.8 mph 60 % 0.0 in
21:32 24.3 °F 16.8 °F 1014.4 in Calm   4.8 mph 63 % 0.0 in
21:37 23.9 °F 16.7 °F 1014.4 in Calm   1.6 mph 64 % 0.0 in
21:42 23.6 °F 16.9 °F 1014.8 in Calm   1.6 mph 66 % 0.0 in
21:47 23.1 °F 16.6 °F 1014.8 in Calm     67 % 0.0 in
21:52 22.7 °F 16.5 °F 1014.8 in Calm     68 % 0.0 in
22:02 22.4 °F 16.2 °F 1014.8 in Calm   1.6 mph 68 % 0.0 in
22:12 22.3 °F 16.1 °F 1014.8 in Calm   1.6 mph 68 % 0.0 in
22:17 22.1 °F 15.9 °F 1015.1 in Calm     68 % 0.0 in
22:22 21.7 °F 16.0 °F 1015.1 in Calm     70 % 0.0 in
22:32 21.0 °F 16.2 °F 1015.1 in Calm     74 % 0.0 in
22:37 20.9 °F 15.9 °F 1015.1 in Calm     73 % 0.0 in
22:42 21.1 °F 15.9 °F 1015.1 in Calm     72 % 0.0 in
22:47 21.1 °F 15.6 °F 1015.1 in NE 1.6 mph   71 % 0.0 in
22:52 20.9 °F 16.1 °F 1014.8 in NNE 4.8 mph   74 % 0.0 in
22:57 20.3 °F 15.9 °F 1014.8 in NNE 4.8 mph 6.4 mph 76 % 0.0 in
23:02 20.0 °F 15.6 °F 1014.8 in North 3.2 mph 6.4 mph 76 % 0.0 in
23:12 19.9 °F 15.7 °F 1014.8 in NW 1.6 mph 6.4 mph 77 % 0.0 in
23:17 19.9 °F 15.7 °F 1014.8 in Calm   6.4 mph 77 % 0.0 in
23:22 20.1 °F 15.9 °F 1014.8 in NNE 1.6 mph 4.8 mph 77 % 0.0 in
23:27 20.1 °F 15.9 °F 1014.8 in WNW 1.6 mph 3.2 mph 77 % 0.0 in
23:32 19.6 °F 15.7 °F 1014.8 in WNW 3.2 mph 3.2 mph 78 % 0.0 in
23:37 19.3 °F 15.8 °F 1015.1 in WNW 1.6 mph 3.2 mph 80 % 0.0 in
23:42 19.4 °F 15.9 °F 1014.8 in Calm   3.2 mph 80 % 0.0 in
23:47 19.7 °F 15.8 °F 1014.8 in NNE 1.6 mph 3.2 mph 78 % 0.0 in
23:52 19.8 °F 15.7 °F 1014.8 in NNE 1.6 mph 3.2 mph 77 % 0.0 in
Meteo18
Compliments of Weather Underground - 4 mb

Script developed by  Jim McMurry - jmcmurry@mwt.net Adapted for the template by  Wim van der Kuil - Leuven-Template.eu

You find our weather info also at:

European Weather Network

Weather Underground

Equipment we use:

Weather-station
Davis Vue

Weather-program
Meteobridge

Weather-server
Raspberry PI 2 B+

Provider
1 and 1

Davis Vue

Meteobridge

Raspberry PI 2 B+

1 and 1